GFSSW_sfc_dewp_234.txt.gz
Dewpoint
51 50 50 50 50 51 52 50 48 48 49 50 49 50 49 49 49 38 33 37 45 53 52 47 40 42 46 48 52 51 43 39 39 39 39 42 41 37 34 36 37 42 52 57 63
49 49 50 50 50 49 49 49 49 50 49 49 49 49 50 48 37 33 42 46 50 50 48 45 37 40 41 45 48 47 42 38 41 40 39 45 43 43 33 32 37 41 58 62 63
49 50 51 52 51 50 50 49 48 49 49 49 48 48 48 44 34 39 51 51 48 43 36 40 39 39 37 41 44 45 41 41 39 40 43 47 45 45 36 34 35 39 58 61 62
50 51 49 49 49 49 49 50 49 49 49 48 47 47 47 39 27 34 44 49 50 37 34 38 38 37 37 37 38 40 41 41 43 44 42 48 48 48 39 35 36 39 57 59 61
49 48 49 49 49 49 48 48 49 49 48 47 47 47 42 34 32 33 39 40 35 34 34 33 34 37 37 34 34 37 38 38 39 42 45 48 47 44 45 39 38 39 55 58 60
48 49 48 48 48 48 48 48 49 48 47 47 47 46 40 34 34 29 31 33 33 33 35 33 33 34 35 33 33 32 36 37 36 39 40 47 48 47 46 41 38 38 52 57 59
48 48 47 48 49 48 48 49 48 47 47 46 45 38 37 33 29 31 34 32 32 33 32 36 34 33 35 35 35 32 32 33 35 37 40 46 41 46 48 47 38 38 54 56 60
47 47 48 47 49 48 48 48 47 47 44 44 43 36 31 29 31 31 27 29 32 34 34 34 36 37 35 38 36 33 31 32 31 36 44 41 36 42 46 47 40 38 53 57 59
48 48 47 48 48 47 48 47 48 45 44 43 36 33 28 35 27 26 27 27 29 29 35 34 38 38 37 34 32 35 27 29 30 32 40 42 39 40 43 47 48 44 46 56 59
47 48 47 48 48 47 47 47 45 42 34 29 31 28 29 21 25 25 26 28 26 29 35 34 36 33 35 34 23 28 32 23 27 29 33 41 38 40 43 45 48 48 43 53 58
47 47 47 47 47 47 45 31 27 23 31 28 25 23 21 25 28 26 26 26 26 28 27 35 31 29 28 32 35 26 26 28 21 26 30 35 39 40 44 47 46 49 49 54 56
47 47 47 47 46 47 41 30 33 35 32 30 26 20 19 26 24 21 27 26 27 25 24 29 26 29 27 29 32 34 31 31 27 23 25 34 37 38 43 43 43 48 48 54 54
47 47 47 47 47 43 34 33 37 38 31 27 20 17 21 26 21 22 24 27 26 25 24 23 18 19 21 26 34 32 31 31 29 30 26 30 33 37 39 41 41 49 48 50 54
47 47 48 48 42 36 32 35 38 40 28 11 10 20 19 20 21 25 28 29 28 26 24 26 24 19 15 20 32 29 31 32 30 33 28 24 24 33 38 39 39 45 46 48 54
47 47 46 45 40 35 33 37 38 37 14 10 12 18 18 18 20 28 33 32 30 27 27 22 23 23 18 17 24 29 36 32 31 33 34 30 28 23 36 39 41 42 44 45 53
45 45 45 40 39 34 35 38 36 27 8 11 14 16 18 16 18 23 26 34 32 30 29 27 26 25 24 17 19 31 33 34 31 32 27 33 29 23 35 38 41 44 44 44 54
44 45 43 38 32 34 38 36 27 16 13 13 14 18 18 18 17 20 28 33 28 22 21 24 24 24 24 22 22 30 29 21 14 17 23 33 32 25 31 37 38 39 40 41 52
46 45 41 35 35 36 36 34 14 16 13 16 17 17 13 17 17 19 23 29 31 27 23 23 18 21 22 22 22 27 26 18 5 12 17 34 29 25 27 35 36 38 37 39 43
45 39 36 33 35 36 35 23 18 16 15 16 18 14 14 18 18 19 19 28 30 31 22 19 20 30 21 20 21 28 25 29 26 24 21 25 27 28 27 28 30 34 35 41 43
38 33 33 32 38 36 33 23 19 13 14 18 17 16 16 19 18 17 22 30 29 29 29 26 21 26 25 21 22 28 29 25 28 20 20 21 19 18 24 26 27 29 35 42 46
40 31 32 33 39 35 25 23 17 16 16 18 19 18 16 16 14 18 21 23 27 25 23 30 28 26 29 22 21 26 30 29 28 29 24 17 20 18 27 27 27 30 34 42 48
36 35 33 35 32 32 25 19 17 13 14 15 16 16 15 12 15 17 21 21 20 19 21 30 26 19 24 25 23 22 27 31 22 24 27 22 21 18 19 20 22 30 32 43 47
36 33 35 35 25 25 19 14 13 12 13 14 12 15 15 10 11 13 14 18 19 19 24 30 23 17 25 27 26 25 24 29 28 27 19 22 19 18 19 19 20 25 33 40 47
38 30 36 35 32 25 21 19 17 17 13 13 12 14 15 13 14 14 15 18 18 19 26 29 27 24 21 24 29 24 27 28 27 20 20 23 15 18 21 21 22 22 23 29 38
37 30 26 25 26 24 24 23 16 14 15 16 14 12 13 8 14 16 15 16 15 23 25 27 22 23 25 24 27 26 27 26 28 28 21 17 17 23 24 26 27 28 28 24 27
33 29 32 29 22 24 24 19 16 15 15 16 15 13 13 14 14 13 16 14 16 22 22 24 21 23 22 27 25 26 30 31 30 30 21 19 21 25 26 26 27 30 29 28 26
32 33 31 27 26 23 22 20 19 18 17 13 14 15 16 15 16 18 19 20 20 22 24 23 24 22 21 29 28 24 27 30 28 29 25 20 23 25 26 26 27 27 29 30 30

GFSSW_sfc_dewp_240.txt.gz
Dewpoint
51 51 50 50 50 50 50 50 49 49 49 49 49 48 48 47 48 42 36 39 41 47 48 39 39 42 44 43 46 48 40 35 38 38 39 41 41 43 37 34 42 52 55 59 64
51 50 50 50 49 49 49 49 49 49 49 49 48 48 47 47 42 38 43 50 46 49 37 34 33 39 40 41 44 44 38 36 38 40 39 41 44 48 44 35 50 55 59 63 65
50 50 50 50 50 49 50 50 49 49 49 48 48 48 47 45 38 33 42 45 47 43 42 35 36 42 39 38 42 42 37 37 40 40 43 45 46 50 48 34 40 54 60 62 63
50 50 49 49 50 50 50 50 49 49 49 48 47 47 47 42 28 35 45 44 42 36 35 35 36 38 36 36 38 38 41 40 41 43 45 46 49 46 49 46 47 53 61 62 62
49 49 50 49 49 49 49 49 49 49 48 48 48 46 44 37 37 39 44 38 34 35 35 36 35 34 34 35 37 37 37 39 41 44 45 45 44 47 49 50 48 47 58 60 61
49 49 49 49 49 49 49 48 48 49 48 48 46 44 41 34 37 36 32 34 34 35 36 36 35 34 32 33 35 35 36 37 36 40 43 42 43 44 49 51 50 49 49 57 60
49 49 49 49 49 49 49 49 49 48 48 47 43 39 37 34 37 34 31 31 32 34 35 38 38 35 35 32 34 35 33 34 34 36 40 45 42 41 44 52 50 49 49 56 59
49 49 49 49 48 48 49 49 49 47 48 42 41 40 33 35 32 29 28 26 30 37 37 38 39 38 37 36 33 32 34 29 31 33 38 40 37 41 44 48 48 49 49 52 58
48 48 48 48 48 48 49 49 46 43 42 38 39 34 30 32 24 27 27 25 28 40 40 36 38 36 36 35 26 30 25 29 29 31 36 38 36 40 44 47 46 48 48 49 57
48 48 48 48 48 48 49 46 40 38 35 34 33 28 22 18 25 28 28 27 26 38 37 36 35 29 30 31 18 23 26 29 28 29 33 38 37 40 43 44 45 48 48 49 55
48 47 47 47 48 48 44 35 30 27 33 30 28 29 26 25 26 25 26 28 29 29 26 33 28 26 25 29 30 30 29 30 30 32 31 33 38 39 44 44 46 47 48 49 50
46 46 46 47 48 44 36 34 35 35 29 31 31 31 29 27 24 23 27 27 27 25 27 29 25 28 28 30 30 29 27 26 28 31 31 30 36 38 44 45 43 45 48 48 52
46 45 46 47 47 40 34 35 38 38 29 28 30 23 21 23 23 24 30 30 28 26 25 23 23 25 27 32 30 27 27 25 26 28 32 31 29 36 41 44 46 47 48 50 52
45 45 46 49 35 39 33 36 39 38 13 11 16 17 19 22 26 31 33 30 30 27 27 25 25 26 24 24 30 23 32 29 27 30 26 33 24 29 37 41 43 44 48 49 50
45 45 46 46 37 33 32 36 37 33 -2 12 16 20 20 20 22 23 36 35 29 29 27 21 25 25 24 21 28 25 34 32 31 28 26 27 28 27 36 38 41 44 46 48 50
44 45 46 38 36 39 35 37 32 12 -4 16 18 17 19 19 20 19 32 33 35 28 27 26 29 28 26 24 24 34 31 32 31 30 16 23 27 24 34 34 39 42 45 46 49
45 46 44 42 30 34 36 31 13 4 15 11 15 18 19 14 16 16 21 27 22 12 11 19 20 27 28 23 29 31 21 13 13 11 11 32 28 24 31 35 38 40 43 45 50
47 45 40 38 32 35 29 19 4 15 13 15 17 19 16 16 14 14 20 23 26 15 12 12 11 25 28 23 20 26 23 11 3 8 17 29 24 26 30 32 37 39 44 46 49
43 35 31 30 34 35 24 10 7 14 16 17 18 16 15 17 14 14 17 24 27 19 7 8 14 22 29 29 22 19 20 30 11 16 18 24 25 27 25 30 38 40 43 47 50
36 31 29 33 36 27 21 13 17 17 16 18 16 17 15 15 10 10 12 28 20 20 22 13 13 24 25 30 25 23 26 21 22 6 12 20 21 18 19 20 36 41 41 45 50
32 28 29 34 32 23 11 12 15 15 16 16 16 15 15 11 12 12 10 19 20 17 20 22 20 19 26 26 20 23 18 25 24 25 18 19 18 19 20 20 21 39 41 44 49
30 20 30 27 20 10 12 19 22 16 17 16 15 15 13 12 12 10 15 15 19 16 10 22 22 15 23 25 30 29 26 25 15 17 24 23 16 23 26 24 25 32 39 47 50
27 28 32 25 11 10 20 20 21 17 16 15 15 18 15 13 6 12 14 18 19 17 16 19 12 9 13 28 30 25 27 28 30 27 20 21 20 26 27 28 29 29 40 49 50
24 14 22 24 19 17 17 19 17 19 17 17 16 16 15 12 13 12 12 16 17 18 26 23 17 16 12 15 26 19 25 27 28 22 26 25 25 25 26 27 27 30 40 47 50
25 19 22 12 16 17 14 20 17 15 17 17 14 14 15 1 9 10 14 16 17 20 18 17 15 14 20 21 25 24 18 23 21 29 26 27 27 26 27 26 27 28 33 41 48
22 19 22 19 21 14 13 10 17 16 16 14 16 16 15 10 12 10 14 15 14 17 14 19 12 19 15 23 25 23 24 29 29 28 26 28 26 28 27 26 26 26 29 33 34
30 30 24 22 16 10 11 13 16 18 17 16 16 17 16 17 18 18 19 20 19 15 12 14 13 13 8 17 27 16 19 25 22 24 24 22 25 25 25 25 25 25 27 30 32

GFSSW_sfc_dewp_243.txt.gz
Dewpoint
51 51 51 51 50 50 50 50 50 50 49 49 49 48 48 47 48 42 38 39 43 48 44 42 35 37 42 42 46 48 38 33 34 38 37 40 40 42 41 34 42 53 55 61 67
51 51 51 50 50 50 50 50 50 49 49 49 48 48 47 47 41 38 42 50 47 48 37 32 35 34 37 40 42 42 37 33 34 40 39 42 45 48 45 40 46 54 60 65 67
51 50 50 50 50 50 50 50 49 49 49 49 48 47 47 44 36 34 44 46 44 42 42 42 36 35 35 38 39 39 35 35 38 41 43 45 46 48 48 41 45 45 51 63 64
50 50 50 50 50 50 50 49 49 49 49 48 47 47 47 42 24 33 45 45 44 36 35 35 36 37 37 35 37 35 39 39 41 42 43 43 47 46 49 47 49 49 54 61 63
50 50 50 50 50 49 49 49 49 49 48 48 48 45 43 36 36 39 45 40 35 34 34 35 36 34 37 34 35 36 36 40 42 42 43 46 45 47 48 51 50 50 54 59 61
50 50 49 49 49 49 49 49 49 48 47 47 46 44 40 29 35 37 33 31 34 34 34 36 37 39 36 34 35 35 36 36 37 40 43 42 43 45 47 52 50 50 51 54 59
49 49 49 49 49 49 49 50 49 46 45 45 43 39 37 32 36 36 32 29 30 34 33 38 38 36 37 33 34 34 36 35 35 37 41 43 39 42 46 50 49 49 50 51 56
49 49 48 48 49 49 49 49 47 45 43 42 43 39 34 35 36 35 27 26 32 38 35 40 39 37 36 36 33 34 35 33 31 35 40 39 34 41 47 48 46 49 49 50 53
49 48 48 47 48 49 48 47 43 43 42 41 39 34 26 31 21 24 28 26 34 40 40 37 38 35 34 33 26 33 29 28 29 32 40 38 35 39 45 47 46 48 49 49 52
47 47 47 47 48 46 43 44 40 37 35 34 31 23 17 16 24 24 28 28 27 38 36 36 33 29 28 33 18 24 26 28 27 29 35 37 35 42 45 46 46 48 49 48 51
47 46 47 47 48 42 37 34 31 19 32 28 26 29 25 26 27 25 25 27 29 28 25 33 28 22 24 26 32 29 28 28 29 31 31 33 36 39 43 44 46 47 48 48 50
47 46 46 47 48 40 35 33 34 33 28 31 31 31 31 29 24 23 31 28 27 25 28 27 22 26 29 29 29 28 26 25 26 29 31 31 34 37 43 43 45 46 48 49 49
46 46 47 47 45 40 33 32 37 37 27 24 28 28 20 21 21 24 32 32 27 26 25 22 23 26 27 30 27 27 26 25 24 27 32 31 28 36 40 43 46 47 48 48 49
45 46 47 47 31 38 31 35 38 35 11 9 16 17 20 22 22 30 35 32 29 26 28 24 25 25 24 25 30 25 29 29 26 25 24 32 21 28 39 40 43 44 45 47 50
45 46 47 44 35 34 32 35 37 24 -9 9 17 20 20 14 20 16 33 33 29 29 27 18 24 25 23 22 28 24 34 31 29 28 29 26 24 26 36 37 42 44 46 47 50
45 46 46 39 34 37 35 36 25 9 -13 15 17 16 19 17 17 19 29 26 32 23 21 26 28 27 25 25 25 32 33 32 30 28 19 22 24 23 33 34 39 44 47 48 49
45 46 42 41 27 32 36 26 11 0 14 7 14 18 19 15 13 15 19 24 18 6 7 17 17 27 28 23 27 32 28 13 17 19 11 31 23 25 30 33 38 43 46 47 49
45 42 38 38 33 35 25 18 -0 13 13 15 17 18 15 14 12 13 22 20 22 12 4 10 8 23 25 25 20 30 27 12 0 10 19 28 17 25 27 30 36 41 45 46 48
41 34 28 31 35 31 22 7 7 14 14 14 17 16 15 16 12 11 13 19 23 15 4 3 12 19 30 28 24 20 24 30 10 17 17 22 24 25 20 22 30 40 44 46 47
35 30 25 32 33 25 19 12 16 17 15 16 16 16 14 14 10 9 9 22 15 19 20 11 12 19 26 28 27 22 26 23 18 11 6 18 17 17 20 23 23 37 43 45 47
30 26 26 31 27 21 10 11 16 16 17 16 13 15 13 11 12 11 7 17 19 17 19 21 17 17 24 27 23 20 16 26 23 22 12 16 16 25 26 28 27 28 36 46 48
27 19 28 24 18 7 12 19 22 16 17 16 16 15 12 12 11 8 13 15 19 17 11 18 21 16 21 24 27 28 25 27 21 15 18 18 16 27 27 27 28 29 34 44 49
27 25 27 23 8 7 19 18 19 16 17 16 15 17 15 12 4 10 13 16 19 17 19 22 9 7 16 27 26 23 27 28 30 28 19 12 17 27 27 27 28 29 39 45 49
23 14 23 23 17 17 15 16 17 19 17 16 16 16 15 12 13 11 12 15 16 18 25 22 19 15 12 16 20 12 18 25 27 20 25 22 25 26 27 26 27 29 34 48 50
24 18 22 10 16 16 13 19 16 15 17 16 14 15 15 2 8 9 14 14 17 20 19 20 14 16 18 20 23 22 15 22 23 23 23 26 26 27 28 26 27 29 31 34 44
21 20 21 19 21 12 10 9 16 16 16 13 16 16 16 9 12 10 14 16 16 17 17 21 15 20 15 25 24 19 18 23 26 25 29 28 25 31 30 26 25 26 27 30 34
29 29 24 20 13 8 9 11 16 18 16 16 16 17 16 16 17 19 19 19 20 19 15 13 17 13 9 18 24 14 17 20 22 22 24 23 24 29 27 24 23 22 25 28 30

GFSSW_sfc_dewp_249.txt.gz
Dewpoint
52 52 51 51 51 51 51 50 50 50 49 49 49 48 48 48 48 40 37 41 46 49 43 36 34 35 37 40 41 42 36 33 34 34 34 37 36 43 44 37 36 48 55 53 56
51 51 51 51 51 51 51 50 50 49 49 48 48 48 47 48 40 33 42 46 45 47 36 36 34 36 34 36 39 36 34 30 33 36 36 36 39 39 43 43 41 44 50 51 61
51 51 51 50 50 50 50 50 50 49 49 48 48 48 47 45 31 30 43 46 46 42 34 34 36 36 34 35 36 35 31 33 35 37 38 34 38 41 42 42 43 44 49 51 55
51 51 50 50 50 50 50 50 49 48 48 46 47 47 46 38 19 28 46 47 47 37 34 34 36 34 30 31 36 33 32 33 32 32 36 37 40 39 42 45 51 50 51 53 54
51 50 49 49 49 50 49 48 46 46 46 45 47 46 40 25 26 32 45 42 32 33 32 33 35 34 31 32 36 36 33 34 37 38 38 39 38 40 45 51 51 50 50 51 54
50 49 49 49 49 50 47 46 45 45 46 45 45 44 34 20 28 34 35 33 28 32 33 34 33 36 34 33 34 37 34 35 36 35 38 38 38 42 45 49 47 47 49 50 52
49 49 49 49 49 49 46 46 45 44 45 45 43 39 33 24 34 35 34 28 28 32 32 35 38 35 34 33 36 36 33 35 36 36 35 39 36 37 43 45 46 44 48 49 52
49 48 48 48 48 47 45 45 44 43 44 43 44 37 25 30 31 26 26 26 29 40 36 38 40 36 36 36 34 35 33 28 32 35 37 38 34 37 45 44 43 44 46 49 52
49 48 48 48 48 45 44 44 41 44 43 45 31 31 18 28 23 27 26 27 27 38 39 37 36 33 31 30 26 28 23 27 27 33 34 36 35 38 45 43 43 43 44 49 52
48 47 48 47 47 43 43 41 38 35 33 27 28 21 19 21 26 28 27 29 28 34 31 34 32 28 27 28 19 22 25 27 28 35 33 35 35 39 44 42 43 43 45 49 51
47 47 48 47 44 41 37 31 24 19 30 26 25 25 23 26 28 22 30 30 29 28 26 30 24 23 25 28 29 25 26 25 32 29 31 33 33 36 41 43 41 42 45 49 50
47 47 47 46 44 40 34 32 33 33 23 28 27 29 27 29 24 20 29 29 28 26 27 25 21 24 26 29 25 28 25 23 25 27 29 32 32 34 39 41 42 41 43 48 50
47 47 48 44 44 38 32 33 36 36 24 14 14 23 18 20 19 17 27 28 29 24 26 24 24 26 25 28 26 23 25 23 24 26 30 32 31 33 39 41 40 43 44 49 49
47 47 47 40 27 35 30 34 36 29 9 1 12 14 18 21 14 17 24 29 29 24 28 23 24 24 24 24 28 22 28 27 27 24 24 30 23 28 37 37 39 42 45 49 49
47 46 44 38 28 30 32 34 36 22 -6 3 14 18 19 15 15 12 26 25 27 21 23 18 22 23 24 23 26 25 32 32 28 27 23 27 26 24 37 37 41 41 46 48 49
46 42 40 39 30 32 34 28 20 11 -13 12 15 14 18 17 15 16 25 20 24 14 13 20 21 27 26 27 25 31 33 30 29 24 16 21 24 23 28 30 40 44 46 46 48
45 39 37 31 25 33 30 22 12 2 11 5 11 13 17 14 12 13 19 16 12 3 3 10 11 19 25 25 25 28 27 13 11 13 14 24 25 21 21 27 28 41 44 45 50
43 39 32 29 32 33 23 18 -3 8 13 13 13 16 15 14 12 11 19 15 18 9 3 9 7 15 19 26 25 26 27 14 6 11 19 30 21 20 26 28 30 38 44 45 49
38 31 25 29 31 25 21 7 6 12 15 12 14 12 12 14 11 11 10 14 18 14 4 6 10 16 19 28 25 22 23 29 16 18 19 22 26 26 27 28 29 31 43 45 46
32 26 22 29 27 23 20 12 14 16 16 15 11 13 12 12 9 8 6 15 14 18 17 13 10 14 23 26 27 24 27 23 19 9 12 21 23 22 25 27 29 30 31 34 45
27 19 20 28 25 21 11 12 18 16 17 16 13 14 12 10 11 10 5 13 17 17 18 19 14 12 20 24 23 23 23 27 26 20 16 18 21 28 27 27 28 30 31 33 36
23 17 25 24 18 9 13 19 18 15 17 16 16 14 12 12 10 8 10 14 18 17 10 20 11 7 18 26 28 29 27 27 22 20 21 16 21 31 29 30 28 30 31 35 40
22 20 26 21 10 9 17 16 18 16 15 15 15 16 15 13 3 7 12 15 17 17 17 19 6 5 9 17 21 20 22 23 24 25 21 17 19 30 27 26 27 29 30 34 47
24 16 22 22 18 17 12 14 15 18 16 15 15 16 15 13 13 11 12 15 16 17 24 23 14 13 13 16 22 15 16 21 24 21 23 23 24 24 25 24 25 28 29 31 35
24 18 20 11 15 16 12 17 14 14 16 16 14 14 15 1 6 7 12 14 16 20 20 15 6 13 17 20 21 19 17 20 22 22 23 24 21 22 26 27 25 29 28 29 29
22 21 22 20 19 10 8 9 14 15 16 13 15 15 15 9 10 5 12 15 15 18 11 14 10 17 15 23 18 15 16 19 18 17 22 24 22 25 27 26 24 26 26 27 28
27 26 23 19 14 7 8 11 16 16 14 16 16 15 15 16 17 17 18 19 20 20 9 9 10 9 6 15 19 12 14 17 18 18 19 15 20 23 22 24 25 25 26 26 27

GFSSW_sfc_dewp_252.txt.gz
Dewpoint
52 52 52 51 51 51 51 51 50 50 49 49 48 48 48 48 46 32 34 40 40 46 44 27 28 29 31 34 36 36 36 34 31 29 27 29 32 33 41 41 40 38 39 51 54
52 52 51 51 51 51 50 50 50 50 49 49 48 49 48 48 34 25 41 47 46 47 31 27 28 30 28 30 35 35 32 32 30 36 37 36 37 34 34 42 38 38 44 50 52
52 51 50 50 50 50 50 49 48 47 48 47 47 49 47 43 23 23 43 46 47 42 30 32 31 31 30 30 31 32 30 25 27 33 37 39 38 36 36 37 37 37 41 48 52
51 50 50 50 50 50 49 47 47 46 47 46 48 46 46 32 15 23 44 46 45 33 29 30 29 30 29 25 30 32 29 29 28 28 31 32 38 38 37 37 44 49 50 50 51
50 50 50 49 49 49 48 47 47 45 46 46 47 46 34 19 21 27 42 38 28 28 28 29 29 30 28 28 29 30 31 33 30 31 30 32 32 35 37 40 48 48 49 50 51
50 49 49 49 49 49 47 47 46 45 47 46 45 44 24 19 25 27 27 26 27 28 29 31 30 32 32 30 30 32 34 35 29 29 33 32 31 36 36 44 47 45 45 46 50
49 49 49 49 49 48 46 46 45 44 45 45 44 37 22 18 24 26 26 26 28 30 31 33 36 34 31 28 32 37 34 31 31 31 31 35 33 33 36 44 42 44 42 43 47
49 49 48 48 48 46 46 45 44 46 42 44 43 34 17 23 22 24 25 25 30 33 36 37 38 35 33 31 30 32 31 27 30 32 31 34 28 32 38 43 43 41 42 40 43
48 48 48 48 47 44 45 43 41 43 45 44 26 27 11 25 17 24 24 24 29 32 36 33 34 32 29 27 24 25 21 22 25 33 32 33 31 35 39 40 43 41 40 42 44
48 48 48 47 45 44 43 40 38 32 29 27 21 19 6 15 21 25 22 27 29 28 28 31 31 28 27 28 21 20 21 23 28 33 34 31 30 33 39 39 40 40 42 41 44
47 48 48 46 42 43 37 26 16 17 22 17 22 14 12 18 23 19 21 27 29 24 24 28 26 25 24 27 26 25 21 22 25 35 32 28 29 35 39 41 41 40 41 42 44
47 48 47 45 41 41 35 31 33 35 17 19 20 21 14 18 15 17 20 27 25 18 25 23 21 22 23 27 26 22 23 20 22 26 27 29 29 30 37 36 39 40 42 43 46
47 47 46 43 42 35 32 32 36 38 24 6 13 13 14 17 14 14 19 22 25 14 23 22 22 24 22 24 26 21 23 22 21 22 29 28 29 31 33 38 41 41 43 44 48
47 45 44 37 29 34 30 34 37 36 28 3 4 10 14 14 3 12 20 22 18 15 22 22 21 25 22 21 25 22 27 27 24 24 24 28 22 29 33 37 38 39 41 45 49
47 41 43 38 29 29 33 36 38 29 18 5 8 13 15 11 10 6 21 18 16 13 13 12 18 25 24 24 25 23 28 30 26 27 26 26 27 28 32 32 36 37 41 46 49
46 38 38 32 31 31 35 29 26 28 9 9 10 10 11 10 10 12 20 15 17 12 12 10 12 25 25 26 27 28 32 28 24 29 23 24 26 24 24 26 29 37 42 45 49
45 37 31 27 24 32 33 29 31 23 7 3 6 11 11 8 7 10 23 20 15 12 13 13 11 18 22 21 23 27 29 23 20 23 20 25 27 27 29 30 32 34 37 45 48
42 39 33 27 30 35 25 31 20 8 9 10 10 9 7 11 9 9 16 15 17 18 14 14 12 12 16 23 23 26 28 22 8 17 18 27 25 27 29 32 32 35 40 44 48
40 31 27 28 29 28 27 25 12 11 12 10 10 4 4 9 12 13 11 16 16 19 14 17 10 13 18 24 24 24 26 31 24 21 20 22 26 24 26 28 30 32 34 36 42
32 27 23 29 28 25 33 18 14 14 14 14 9 10 6 9 12 12 11 17 18 17 19 21 15 13 18 25 25 25 25 25 26 18 14 21 22 22 25 26 29 31 32 34 36
30 22 22 28 28 27 25 18 16 14 15 14 11 12 10 13 11 10 11 9 17 17 18 23 18 19 20 24 23 24 26 27 27 24 21 19 21 30 28 29 28 30 31 33 38
28 38 28 25 30 28 22 18 16 13 15 14 15 13 12 10 12 12 9 10 15 16 21 23 20 17 20 25 29 25 24 23 21 21 25 22 22 31 30 29 28 28 29 32 37
28 24 28 27 30 23 17 15 15 13 13 12 12 14 14 11 12 8 9 11 16 18 24 25 19 17 14 24 19 19 19 21 26 26 24 23 22 28 29 29 27 26 28 30 33
35 36 34 32 27 17 14 12 12 16 15 14 14 12 14 12 12 12 11 13 16 18 25 23 20 17 14 18 22 19 19 21 25 23 23 24 23 21 23 26 26 26 27 29 31
32 27 21 25 23 19 18 15 10 10 15 15 13 12 13 13 13 12 12 14 16 21 20 22 17 18 16 18 20 20 20 21 24 21 22 23 20 20 23 26 27 27 26 27 29
33 29 27 24 17 18 16 16 10 12 13 11 13 12 13 15 14 13 15 16 17 20 19 21 18 17 16 23 20 17 16 19 18 17 20 24 22 22 24 24 25 27 25 25 27
29 26 26 22 18 18 17 17 14 17 14 14 14 15 13 14 16 17 18 18 19 21 19 19 18 16 15 15 20 19 16 17 18 18 18 15 20 23 21 22 25 26 26 26 26

GFSSW_sfc_dewp_258.txt.gz
Dewpoint
52 52 52 51 51 51 51 50 49 49 49 49 49 49 50 50 50 38 30 39 42 48 45 29 26 28 28 29 30 30 31 31 28 25 26 28 32 37 38 42 41 42 42 45 48
52 52 51 51 51 50 50 50 50 49 48 47 48 49 49 49 36 24 40 45 46 46 31 25 25 26 25 25 30 31 27 25 25 26 26 30 37 38 37 39 40 43 42 46 49
51 51 51 50 50 50 50 49 49 48 47 48 49 48 48 45 30 20 43 44 43 39 27 25 25 25 25 25 26 27 25 24 24 28 33 36 35 36 35 35 41 43 45 46 50
51 51 50 50 50 49 49 49 49 47 47 48 48 48 49 37 17 21 40 41 41 29 24 25 25 26 25 24 24 26 24 22 25 25 26 34 36 32 34 34 41 43 45 51 52
51 50 50 50 49 49 48 49 48 46 49 48 48 48 41 26 17 19 39 33 21 27 26 25 26 26 25 26 26 26 24 25 25 28 29 30 30 34 35 35 34 36 48 50 51
50 50 50 49 49 48 47 48 47 46 45 48 47 48 30 11 13 16 20 19 19 26 27 28 28 30 28 28 28 26 26 27 29 30 31 29 27 27 28 34 33 33 44 49 52
50 49 49 49 48 47 47 48 46 48 44 45 46 35 28 12 14 19 21 15 18 25 26 30 33 32 30 29 27 26 26 31 31 31 31 32 27 27 29 32 32 33 42 47 51
49 49 49 49 48 46 47 47 45 46 45 46 45 33 22 12 15 18 16 12 15 27 29 33 35 34 33 31 27 25 33 32 36 30 30 28 27 27 29 30 32 41 45 47 48
49 49 49 48 47 45 46 46 43 41 45 45 29 22 11 20 10 17 12 12 13 27 29 28 33 32 30 21 25 33 19 19 24 33 32 30 26 32 35 37 33 40 42 42 42
49 49 47 47 46 45 46 44 44 41 37 21 16 18 8 7 13 12 11 13 20 26 26 30 30 30 23 22 19 19 19 19 20 30 32 32 28 32 39 39 41 41 39 40 40
48 48 46 45 45 45 44 29 27 22 17 13 12 13 5 8 13 5 13 13 22 17 15 25 30 22 20 21 23 22 19 17 21 29 31 28 27 33 39 43 42 41 41 41 42
48 48 44 44 45 45 38 29 32 36 21 10 7 12 10 9 9 2 15 13 20 9 13 24 19 20 22 21 22 22 20 22 21 21 22 28 29 36 39 39 40 42 42 42 43
48 48 43 43 44 40 33 33 36 37 29 9 6 7 9 6 9 6 17 15 15 11 12 19 15 22 20 22 22 24 25 20 21 23 22 21 27 34 38 39 40 41 44 44 45
47 46 42 43 37 32 32 36 38 39 34 7 3 6 7 7 8 5 17 14 17 8 12 20 14 20 20 18 21 24 24 23 22 24 26 26 26 33 36 36 37 39 42 43 47
47 44 40 41 30 28 33 37 40 37 24 8 4 8 7 5 5 7 18 16 16 15 12 11 12 15 20 18 19 23 25 26 26 25 25 31 28 30 34 31 33 39 40 43 46
45 39 42 32 33 29 36 37 36 33 11 9 6 7 5 7 4 9 18 19 20 19 18 15 17 17 19 20 21 24 28 28 28 26 16 28 29 26 30 30 30 36 37 39 41
43 37 33 25 26 32 38 35 32 19 8 7 5 10 7 7 7 9 16 18 18 13 14 18 15 16 22 23 25 25 25 14 11 12 16 29 24 26 31 31 32 34 34 37 39
42 42 33 26 31 37 33 35 19 13 7 7 9 9 6 8 10 9 12 14 17 19 16 15 12 15 20 21 24 24 28 21 10 14 17 27 24 25 32 31 31 32 33 34 36
40 37 31 29 31 33 33 24 18 12 8 9 11 7 6 10 13 16 14 16 17 20 12 16 11 15 21 22 23 25 21 28 24 24 19 25 27 33 26 25 26 29 31 32 34
38 33 31 30 32 33 33 21 17 10 11 13 10 10 7 9 14 14 14 19 17 19 23 21 14 15 18 22 23 22 21 20 23 15 18 22 20 19 23 24 25 26 28 30 33
38 30 30 30 35 35 27 19 13 11 14 14 13 13 10 12 12 14 13 14 17 20 23 26 17 15 20 22 20 24 18 22 23 26 20 18 18 28 25 27 26 27 28 30 32
37 39 33 33 33 34 27 17 13 12 15 13 16 13 12 9 14 13 13 15 18 21 20 25 16 12 18 23 19 20 19 24 19 19 23 24 18 29 28 29 29 27 28 30 31
36 31 35 37 31 28 18 14 14 13 13 13 13 14 13 10 9 11 12 18 20 21 23 22 15 10 11 21 19 20 18 21 23 27 20 19 19 27 27 27 29 27 28 29 30
41 32 38 36 34 23 17 13 15 18 14 13 13 12 15 12 11 11 12 17 20 23 25 23 20 14 9 14 21 14 16 20 19 19 19 20 22 20 22 25 27 27 28 29 29
40 31 26 30 27 24 24 17 10 13 15 15 12 10 12 6 13 12 15 17 21 24 22 20 14 19 17 17 21 20 15 18 15 16 17 18 19 21 23 25 27 27 27 27 28
36 32 31 25 19 24 22 17 10 12 14 11 15 11 11 13 13 9 15 17 19 20 15 20 13 16 12 19 22 20 15 17 18 16 14 18 21 23 26 26 28 26 26 26 27
30 29 34 24 23 25 23 19 17 19 15 12 12 13 13 15 15 15 16 17 18 18 19 20 18 13 10 17 15 15 15 14 19 18 17 13 18 21 21 22 26 25 26 26 27

GFSSW_sfc_dewp_261.txt.gz
Dewpoint
52 52 52 51 51 51 51 50 50 49 49 48 49 49 50 50 48 34 34 40 41 46 43 33 26 26 28 28 30 30 29 23 24 26 26 30 33 37 39 39 41 46 45 46 49
52 52 51 51 51 50 50 50 50 48 48 48 48 49 49 49 39 31 38 43 44 44 30 28 24 25 25 25 28 28 26 24 25 26 27 31 35 36 37 37 39 42 47 47 48
52 51 51 50 50 49 49 49 49 48 48 48 49 48 49 47 30 22 40 43 42 37 27 25 25 27 27 26 25 29 27 27 26 26 28 32 34 36 35 33 37 42 45 47 49
51 51 50 50 50 49 48 49 48 47 49 48 49 49 50 39 16 16 40 40 40 25 27 26 26 26 26 25 27 26 27 26 27 25 26 28 36 33 34 33 37 45 47 46 50
51 50 50 49 49 48 48 49 48 47 47 49 49 48 42 27 12 13 38 35 16 17 26 26 26 28 28 28 28 27 27 27 27 28 29 30 29 31 33 35 37 39 43 46 49
50 50 50 49 49 48 47 49 47 47 46 46 48 48 33 11 13 16 21 19 13 14 25 28 29 31 30 30 29 27 27 26 27 29 31 30 31 31 32 35 34 35 42 46 46
50 49 49 49 48 47 47 48 47 47 47 45 46 39 29 9 11 16 20 13 14 14 26 31 34 33 32 31 32 29 27 32 33 34 33 34 31 30 32 31 30 30 39 48 49
49 50 49 48 48 47 46 47 47 45 47 47 47 38 18 20 14 12 15 12 14 14 27 31 34 34 33 33 29 30 30 26 24 33 34 33 27 28 32 30 31 34 42 46 49
49 49 48 47 46 46 47 48 45 44 43 45 31 27 10 17 9 13 11 14 14 18 28 27 33 32 32 24 22 26 18 20 21 32 33 32 27 31 39 40 36 38 43 45 45
49 49 47 46 46 46 48 49 42 42 38 32 18 12 7 7 11 9 17 15 17 24 28 30 29 29 23 21 18 20 19 20 20 27 31 32 30 30 39 41 40 41 40 41 42
49 48 46 45 45 47 46 31 30 24 16 11 12 16 8 10 11 13 18 15 18 14 12 25 21 18 19 23 25 21 24 21 22 26 29 29 29 33 39 39 42 43 43 43 44
49 48 44 44 44 47 35 32 33 35 13 12 8 15 10 10 8 7 15 14 19 10 12 20 15 20 23 24 23 24 25 22 22 22 23 24 23 37 40 39 42 42 42 43 45
48 48 43 43 44 37 35 34 36 37 24 11 8 8 8 9 6 12 14 14 16 9 9 15 14 17 23 20 19 19 26 22 23 24 32 29 27 36 38 37 36 39 40 42 43
48 47 45 46 35 30 33 37 38 37 18 8 6 7 8 10 8 11 18 16 18 11 11 14 13 15 19 18 20 19 28 23 25 25 23 30 25 28 33 32 30 35 37 38 40
47 45 42 43 31 29 33 37 38 35 4 6 7 8 9 6 9 11 21 20 18 18 16 13 13 16 19 20 22 21 25 26 27 26 26 30 25 25 29 24 26 32 35 36 38
44 40 42 31 30 29 36 36 34 20 -4 9 10 10 9 10 9 14 19 21 23 20 19 18 19 19 21 21 25 26 26 26 27 26 19 28 27 21 24 26 26 30 33 34 36
42 39 33 28 24 30 36 33 21 8 8 5 7 12 10 8 11 13 15 17 16 7 8 17 16 16 19 21 26 24 20 6 8 15 18 27 21 22 27 29 29 29 31 34 34
41 42 36 26 29 35 32 24 3 13 8 11 10 12 8 10 12 14 14 14 17 13 4 11 8 14 15 21 21 23 23 11 2 15 21 26 19 21 25 31 31 31 31 32 32
40 36 28 28 29 30 28 13 10 11 10 10 12 8 7 11 12 13 15 14 17 17 6 9 10 16 17 21 22 21 13 21 22 25 21 23 23 32 23 25 27 28 29 30 31
36 31 28 28 30 32 23 15 13 12 14 14 10 10 7 9 10 10 10 16 16 20 21 13 12 14 17 23 22 22 21 16 20 13 16 19 18 17 21 23 25 27 26 28 31
34 28 30 29 35 26 15 14 12 12 16 15 12 12 9 9 11 11 9 15 19 20 24 22 10 11 21 21 17 17 14 20 23 24 16 17 16 25 23 25 25 27 27 28 30
32 31 32 33 26 25 17 13 14 13 15 15 14 13 10 9 12 11 12 14 20 23 14 21 10 3 14 22 20 18 19 21 17 16 21 21 16 26 25 26 27 27 27 28 30
31 29 35 34 21 15 16 15 16 13 13 12 13 14 12 10 2 11 11 19 21 23 20 18 4 -1 4 9 16 19 16 19 19 24 16 12 18 24 24 24 27 26 26 28 29
36 24 33 30 27 18 14 13 14 17 14 13 13 12 14 12 12 9 12 18 20 23 26 22 7 5 3 6 14 12 12 17 16 13 13 17 18 19 20 22 24 25 26 27 28
33 25 25 23 21 21 15 15 13 12 14 14 12 10 12 -1 7 10 15 15 21 23 22 18 4 15 14 16 19 18 13 14 12 15 10 15 19 19 21 23 25 25 26 26 27
30 26 27 22 21 16 16 12 10 10 12 11 14 11 11 8 10 3 11 14 17 16 17 19 6 14 9 21 24 17 15 14 16 15 14 15 16 19 23 24 24 23 24 24 25
28 29 26 20 21 19 16 14 14 14 12 11 11 12 13 14 15 14 15 16 16 12 20 20 16 6 3 15 14 7 5 12 16 16 16 11 15 18 19 20 22 22 23 24 25

GFSSW_sfc_dewp_264.txt.gz
Dewpoint
52 52 52 51 51 51 50 50 50 49 48 48 49 49 49 49 47 34 34 38 39 45 39 31 28 26 27 27 30 31 27 23 24 23 22 25 26 32 38 39 41 45 45 47 48
52 52 51 50 51 50 49 50 50 49 48 48 49 49 49 50 36 28 34 44 43 43 22 26 25 24 25 26 27 29 25 23 25 26 26 26 28 33 35 35 35 43 46 45 46
52 51 50 50 50 49 49 50 49 48 49 48 49 49 50 47 26 17 39 41 41 33 21 27 26 27 26 27 25 27 25 27 26 27 29 29 29 34 35 30 34 37 40 44 45
51 51 50 50 49 49 48 50 48 48 48 48 49 49 51 37 2 14 39 40 37 19 19 26 26 26 26 26 28 26 27 27 28 28 28 28 32 33 34 31 33 39 44 45 45
51 50 50 49 49 49 48 49 48 47 46 46 48 49 38 13 10 12 38 31 13 13 14 26 27 28 28 29 29 28 27 28 28 28 29 30 30 31 31 32 34 35 44 46 45
50 50 50 49 49 48 47 48 48 47 48 46 47 48 27 9 12 13 17 13 12 13 15 23 28 31 30 30 30 29 28 29 29 31 34 35 33 32 31 33 34 34 40 45 46
49 50 49 48 48 48 47 48 47 47 47 47 47 39 16 8 13 11 13 14 15 15 14 28 33 32 32 31 33 31 29 29 32 31 36 34 31 31 33 34 33 30 37 46 47
49 50 49 47 47 47 47 48 46 45 44 46 46 36 13 18 20 11 12 15 16 17 19 28 33 33 33 32 26 29 25 21 24 25 34 33 27 31 32 35 35 32 34 45 47
49 49 48 46 46 47 48 49 47 45 45 44 28 24 4 18 9 12 16 12 15 19 25 28 32 31 30 24 21 22 19 21 22 25 32 32 27 31 40 40 41 35 40 44 46
49 49 48 45 46 48 48 47 41 36 33 30 18 6 3 7 12 10 16 13 18 17 24 29 27 25 23 22 20 23 19 23 21 23 24 30 29 33 39 41 43 43 43 44 44
49 49 46 45 46 47 39 28 27 22 14 4 8 7 8 11 10 8 16 14 17 13 11 27 17 15 21 23 21 22 22 23 23 24 24 24 29 37 36 36 37 40 42 43 45
49 48 45 44 45 44 35 31 32 32 10 12 8 13 12 10 5 11 19 13 13 8 12 16 12 14 19 21 21 20 23 22 23 24 30 29 33 35 35 34 36 36 37 37 39
48 47 46 44 43 37 35 34 37 37 17 11 8 8 8 10 7 11 19 17 13 10 11 12 12 16 20 21 21 21 24 23 21 24 32 30 28 28 34 33 31 33 34 35 36
48 47 45 46 32 32 33 37 38 35 16 5 6 7 8 10 8 13 19 19 18 13 15 14 13 16 20 20 21 20 24 24 24 25 21 32 23 23 28 28 25 29 32 34 34
46 44 44 40 28 26 31 37 37 33 4 4 7 10 10 5 8 12 19 22 18 19 16 14 15 17 19 19 23 22 24 25 25 26 26 28 19 20 21 21 24 28 31 33 34
44 41 38 29 30 29 36 35 33 20 -3 7 10 12 9 10 13 17 18 21 22 17 17 17 20 17 18 19 24 24 25 21 26 26 19 25 19 17 21 24 24 28 30 31 33
42 40 33 28 18 31 36 33 21 9 7 2 5 12 11 9 13 16 15 16 16 8 6 14 14 15 16 21 24 23 16 6 9 11 19 27 16 19 26 27 28 28 29 31 33
41 43 32 28 30 34 32 25 5 11 8 11 11 12 9 10 11 15 14 13 18 12 1 10 8 13 15 19 20 22 17 7 5 11 19 23 17 20 21 28 30 31 30 30 31
40 35 28 28 29 32 25 13 8 12 10 9 11 5 6 11 11 12 13 13 17 16 10 12 10 15 15 20 21 20 12 22 16 21 19 22 19 28 19 22 25 27 27 28 30
36 29 28 29 32 29 24 14 13 12 14 14 5 10 6 9 10 9 8 15 16 21 20 14 11 13 17 21 19 18 19 16 16 4 4 17 16 14 18 20 23 24 25 26 29
33 28 31 32 33 25 17 16 11 12 16 14 12 11 10 9 10 10 8 15 19 21 23 17 10 10 19 21 15 15 13 19 21 19 7 10 14 23 20 23 23 25 25 26 28
30 28 33 31 25 21 18 13 15 12 15 15 13 12 10 9 11 10 12 13 21 23 14 20 9 3 12 20 19 16 16 19 12 11 16 17 14 25 23 24 25 25 25 26 28
30 28 35 29 18 14 15 15 15 12 12 12 12 13 13 10 1 10 11 20 23 22 22 17 3 -1 3 8 14 18 14 17 18 21 14 7 14 23 22 23 24 24 24 25 27
33 24 28 29 24 18 14 12 11 16 13 13 12 12 12 11 12 9 12 17 20 23 26 21 6 3 1 3 12 8 11 15 13 7 10 14 14 18 18 20 22 24 24 25 26
32 25 24 19 20 19 15 16 12 10 14 13 12 9 11 -5 5 9 14 14 19 22 21 14 3 9 14 15 17 18 12 13 7 14 6 12 14 17 19 21 22 24 23 23 24
29 25 25 21 19 17 16 13 12 12 12 12 13 10 13 7 8 2 10 13 15 15 16 17 4 13 6 21 21 15 14 14 15 13 12 13 13 16 19 22 21 21 21 21 22
30 30 24 20 20 15 16 14 13 14 13 12 12 12 12 13 14 13 15 15 15 10 19 10 9 3 -0 11 7 5 9 11 15 14 15 10 14 17 16 17 21 20 21 21 23

GFSSW_sfc_dewp_270.txt.gz
Dewpoint
53 52 51 51 51 50 50 51 50 50 49 49 49 49 49 50 44 15 20 35 39 45 34 12 22 26 27 27 30 32 24 20 22 22 22 25 25 26 28 27 29 36 41 44 45
52 52 51 51 50 50 50 51 49 49 50 50 49 49 49 50 32 18 29 42 42 43 14 11 15 26 26 26 28 26 23 22 23 25 24 25 27 27 28 29 30 32 35 46 44
52 51 50 50 50 50 49 50 49 48 47 48 48 49 50 42 22 12 35 40 42 36 13 14 23 27 26 27 26 26 25 25 24 25 29 29 29 30 29 28 30 31 34 44 44
51 51 50 49 49 49 48 49 49 47 47 46 48 49 47 28 -10 9 37 40 40 20 14 22 26 27 27 26 28 25 27 27 28 28 29 30 31 29 29 28 30 33 39 44 43
51 50 50 49 49 48 48 49 48 47 47 47 48 48 20 4 4 9 37 29 15 15 13 17 26 28 26 28 29 28 28 29 30 31 31 31 31 32 30 34 33 33 40 44 43
50 50 50 49 48 48 48 49 48 47 47 47 48 44 9 -1 6 14 14 13 14 15 15 18 26 29 29 30 29 29 30 30 29 28 30 32 34 36 36 39 35 33 33 43 43
50 50 49 48 47 48 48 48 47 44 44 44 46 33 8 0 13 18 14 15 15 16 16 20 31 30 30 29 31 31 27 24 24 26 28 31 31 33 35 36 36 37 35 44 44
50 50 49 47 47 48 48 49 48 48 46 45 42 25 9 13 21 12 16 17 16 18 18 23 33 32 30 28 23 23 22 20 23 26 27 31 27 32 34 34 34 35 39 42 43
51 50 49 47 47 48 48 48 48 44 42 40 18 13 -3 16 9 12 17 16 16 20 26 26 27 25 23 22 19 20 16 19 22 25 28 32 30 34 32 33 32 33 34 36 40
51 50 49 46 47 47 45 45 39 27 18 18 10 1 0 6 12 13 18 18 17 17 27 21 20 17 17 19 15 17 16 18 21 23 30 28 27 31 31 32 32 32 33 34 35
50 49 48 46 46 45 35 23 18 9 12 5 8 3 5 10 10 13 19 16 14 14 13 18 17 14 14 17 21 20 19 19 22 25 29 27 26 30 32 29 30 32 32 32 33
49 48 47 45 45 42 33 28 31 22 8 10 8 10 11 10 9 12 20 14 14 12 14 15 13 14 18 21 21 21 20 18 22 23 25 27 26 29 30 30 31 31 30 31 31
49 47 46 45 41 35 34 34 37 34 15 10 9 9 8 9 9 12 19 19 15 15 16 13 13 17 18 19 20 20 20 19 20 22 29 32 25 22 28 28 26 27 29 31 30
48 45 46 43 30 32 31 36 38 31 19 5 6 7 8 11 6 15 20 20 18 15 18 15 15 16 17 15 18 20 21 21 23 24 23 27 16 20 23 23 21 24 27 28 29
46 43 41 34 25 23 30 36 37 32 10 6 7 13 10 11 13 11 21 21 18 16 13 11 14 15 16 16 17 19 21 22 26 26 22 18 17 17 18 17 20 22 25 27 28
43 42 38 28 27 29 36 34 31 24 5 6 9 12 6 9 13 17 18 22 21 14 14 14 16 16 15 17 18 21 21 20 23 20 6 19 17 12 17 20 20 22 24 26 28
42 39 31 26 17 32 36 31 22 15 4 2 4 11 10 9 11 14 13 16 14 3 5 12 11 14 17 16 19 19 13 4 7 6 8 20 13 9 20 22 23 23 25 27 28
45 36 32 28 33 33 32 26 6 9 5 10 11 8 5 9 9 11 14 13 17 11 3 9 0 12 15 18 17 19 15 3 -2 3 10 19 10 17 18 20 22 23 26 25 25
41 33 27 28 32 31 27 15 16 7 7 6 6 -1 -0 8 10 10 10 11 17 19 7 10 7 13 16 20 17 16 10 21 8 9 13 15 14 26 16 18 19 20 22 22 24
34 30 27 31 32 27 26 14 12 12 13 11 -1 8 -3 5 7 6 6 14 16 22 19 17 7 11 14 19 18 16 17 11 9 -2 -4 9 10 12 14 17 18 19 21 21 24
35 30 31 33 28 25 21 16 12 13 13 11 8 8 6 8 9 9 7 13 21 21 21 19 10 6 16 18 14 14 8 14 14 13 2 5 8 16 18 19 19 19 22 22 23
35 32 35 31 27 23 20 13 14 12 15 14 12 10 5 8 10 8 11 13 23 22 17 22 10 2 8 15 15 14 13 14 5 3 10 10 11 22 20 20 22 20 22 22 24
36 34 34 28 25 21 15 14 14 11 11 12 10 13 11 9 -2 9 10 20 23 22 21 15 0 -7 -3 6 11 15 13 14 14 13 3 2 11 20 18 18 20 21 22 21 23
36 31 32 31 28 20 15 11 13 16 12 13 11 13 11 10 10 6 10 17 21 22 24 21 11 -3 -2 -0 7 3 9 13 9 3 -0 4 9 12 15 16 18 19 21 21 22
36 31 26 28 26 20 18 16 11 10 13 13 11 9 8 -1 6 9 12 11 18 20 18 9 1 3 11 13 16 16 8 10 3 10 2 6 5 10 15 16 18 21 21 20 20
32 30 30 25 19 21 17 15 9 11 12 10 12 10 8 5 4 1 8 9 14 14 5 9 3 8 3 18 13 15 14 12 13 13 10 10 9 15 16 17 18 20 20 19 19
35 33 33 26 22 22 19 17 14 17 13 12 12 13 12 11 11 12 13 13 14 10 5 0 -0 -3 -5 8 2 3 2 9 12 9 10 7 10 15 15 16 17 20 19 19 20